Location: Recife
(8.0585°S, 34.8848°W)
Time: 08:48:33
(UTC-03:00)

Courier 1B - Pass Details

Date: 20 April 2026
Orbit: 962 x 1209 km, 28.3° (Epoch: 13 May)

Event Time Altitude Azimuth Distance (km) Brightness Sun altitude
Rises 14:14:51 0° 254° (WSW) 4,013 11.2 41.9°
Reaches altitude 10° 14:17:55 10° 261° (W) 3,016 10.9 41.2°
Maximum altitude 14:24:46 41° 328° (NNW) 1,525 9.9 39.6°
Drops below altitude 10° 14:31:14 10° 37° (NE) 2,833 9.9 38.2°
Sets 14:34:02 0° 44° (NE) 3,748 10.4 37.5°
